Home > Weather > Ingolstadt > Past weeks

Flag for Germany Past Weather in Ingolstadt, Bavaria, Germany — Yesterday and Last 2 Weeks

Now
70 °F

Mild.


Feels Like: 70 °F
Forecast: 66 / 81 °F
Wind: 5 mph from West

Location: Ingolstadt Airport

Current Time: Jun 25, 2016 at 1:56:40 AM

Latest Report: Jun 25, 2016 at 12:20 AM


Visibility: 3 mi

Pressure: 29.98 "Hg

Humidity: 88%

Dew Point: 66 °F

Location of IngolstadtLocation

Past Weather in Ingolstadt — Graph

°F

Ingolstadt Temperature Yesterday

Maximum temperature yesterday: 90 °F (at 5:20 PM)
Minimum temperature yesterday: 59 °F (at 4:20 AM)
Average temperature yesterday: 76 °F

High & Low Weather Summary for the Past Weeks

 TemperatureHumidityPressure
High90 °F (Jun 24, 5:20 PM)100% (Jun 10, 3:20 AM)30.27 "Hg (Jun 10, 3:20 AM)
Low48 °F (Jun 10, 3:20 AM)38% (Jun 24, 3:20 PM)29.56 "Hg (Jun 14, 3:20 PM)
Average63 °F76%29.93 "Hg
* Reported Jun 10 12:20 AM — Jun 25 12:20 AM, Ingolstadt, Weather by CustomWeather, © 2016

Note: Actual official high and low records may vary slightly from our data, if they occured in-between our weather recording intervals... More about our weather records

Advertising

Ingolstadt Weather History for the Previous 24 Hours

Scroll right to see more
 ConditionsComfort  
Time TempWeatherWind HumidityBarometerVisibility
12:20 AM
Sat, Jun 25
70 °FMild.5 mph88%29.98 "Hg3 mi
11:20 PM
Fri, Jun 24
70 °FMild.2 mph88%29.98 "Hg3 mi
10:20 PM75 °FPassing clouds.2 mph78%29.98 "HgN/A
9:20 PM81 °FPassing clouds.2 mph58%29.95 "HgN/A
8:20 PM86 °FPassing clouds.2 mph46%29.95 "HgN/A
7:20 PM88 °FPassing clouds.2 mph40%29.98 "HgN/A
6:20 PM90 °FPassing clouds.3 mph41%29.98 "HgN/A
5:20 PM90 °FPassing clouds.2 mph38%29.98 "HgN/A
4:20 PM88 °FPassing clouds.5 mph38%30.01 "HgN/A
3:20 PM88 °FPassing clouds.3 mph38%30.04 "HgN/A
2:20 PM86 °FPassing clouds.2 mph43%30.04 "HgN/A
2:00 PM88 °FPassing clouds.3 mph46%30.04 "HgN/A
1:20 PM86 °FPassing clouds.2 mph52%30.07 "HgN/A
12:20 PM82 °FPassing clouds.2 mph58%30.07 "HgN/A
11:20 AM82 °FWarm.2 mph58%30.09 "HgN/A
10:20 AM79 °FWarm.2 mph61%30.09 "HgN/A
9:20 AM77 °FWarm.2 mph61%30.09 "HgN/A
8:20 AM72 °FMild.1 mph73%30.09 "HgN/A
7:20 AM68 °FMild.1 mph83%30.09 "HgN/A
6:20 AM63 °FMild.2 mph88%30.09 "HgN/A
5:20 AM59 °FFog.2 mph94%30.09 "HgN/A
4:20 AM59 °FCool.1 mph94%30.07 "Hg1 mi
3:20 AM63 °FMild.1 mph94%30.09 "Hg3 mi
2:20 AM63 °FMild.1 mph94%30.09 "Hg3 mi
1:20 AM64 °FMild.No wind88%30.09 "Hg3 mi
Weather by CustomWeather, © 2016

See weather overviewHow to use our weather pages